{"data":{"norad_id":66543,"intl_designator":"2025-265AD","name":"STARLINK-35315","alt_names":[],"object_type":"PAYLOAD","status":"ACTIVE","operator":null,"country":"US","launch_date":"2025-11-19","launch_site_code":"AFETR","launch_vehicle":null,"mission":null,"orbit_class":"UNKNOWN","rcs_meters":null,"size_class":null,"mass_kg":null,"dimensions":null,"purposes":["comms"],"wikipedia_slug":null,"has_3d_model":false,"image_url":null,"decayed_at":null,"tle_current":{"epoch":"2026-05-25T05:03:02.181024Z","epoch_age_seconds":47054,"freshness":"FRESH","line1":"1 66543U 25265AD  26145.21044191  .00014454  00000+0  53360-3 0  9991","line2":"2 66543  42.9975 206.0132 0000752 286.1499  73.9269 15.27588883 28819","mean_motion":15.27588883,"eccentricity":7.52e-5,"inclination_deg":42.9975,"raan_deg":206.0132,"arg_perigee_deg":286.1499,"mean_anomaly_deg":73.9269,"bstar":0.0005336,"rev_number":2881,"period_min":94.266200548148,"perigee_km":482.50653807671,"apogee_km":483.5384564651,"semimajor_km":6861.1594972709,"source":"CELESTRAK","updated_at":"2026-05-25T13:38:21.255429Z"}}}